TimeEDT,TemperatureF,Dew PointF,Humidity,Sea Level PressureIn,VisibilityMPH,Wind Direction,Wind SpeedMPH,Gust SpeedMPH,PrecipitationIn,Events,Conditions,WindDirDegrees,DateUTC
12:21 AM,30.2,26.6,86,29.87,10.0,North,15.0,21.9,0.00,,Overcast,350,2013-03-21 04:21:00
12:34 AM,30.2,26.6,86,29.87,10.0,North,13.8,-,0.00,,Overcast,360,2013-03-21 04:34:00
12:54 AM,30.9,26.1,82,29.88,10.0,North,15.0,-,0.00,,Overcast,350,2013-03-21 04:54:00
1:54 AM,30.2,26.6,86,29.84,6.0,North,13.8,19.6,N/A,Snow,Light Snow,350,2013-03-21 05:54:00
2:28 AM,30.2,26.6,86,29.82,6.0,NW,12.7,-,0.00,Snow,Light Snow,320,2013-03-21 06:28:00
2:49 AM,28.4,24.8,86,29.81,7.0,NW,17.3,-,0.00,Snow,Light Snow,320,2013-03-21 06:49:00
2:54 AM,28.9,24.1,82,29.81,9.0,NW,15.0,23.0,0.00,Snow,Light Snow,320,2013-03-21 06:54:00
3:54 AM,28.0,18.0,66,29.80,10.0,North,10.4,-,N/A,,Partly Cloudy,360,2013-03-21 07:54:00
4:54 AM,25.0,15.1,66,29.80,10.0,North,6.9,18.4,N/A,,Clear,360,2013-03-21 08:54:00
5:54 AM,24.1,12.0,60,29.80,10.0,North,8.1,-,N/A,,Clear,360,2013-03-21 09:54:00
6:54 AM,23.0,12.0,63,29.83,10.0,North,10.4,19.6,N/A,,Clear,350,2013-03-21 10:54:00
7:54 AM,21.9,12.0,66,29.84,10.0,NNW,10.4,19.6,N/A,,Clear,340,2013-03-21 11:54:00
8:54 AM,23.0,12.9,65,29.86,10.0,North,11.5,18.4,N/A,,Clear,350,2013-03-21 12:54:00
9:54 AM,24.1,12.9,62,29.86,10.0,North,13.8,24.2,N/A,,Clear,350,2013-03-21 13:54:00
10:54 AM,26.1,14.0,60,29.88,10.0,North,9.2,19.6,N/A,,Clear,350,2013-03-21 14:54:00
11:54 AM,28.0,14.0,56,29.89,10.0,North,10.4,23.0,N/A,,Clear,10,2013-03-21 15:54:00
12:54 PM,32.0,15.1,50,29.88,10.0,North,15.0,21.9,N/A,,Clear,350,2013-03-21 16:54:00
1:54 PM,35.1,12.9,40,29.86,10.0,North,11.5,20.7,N/A,,Clear,350,2013-03-21 17:54:00
2:54 PM,35.1,21.9,59,29.85,10.0,North,16.1,27.6,N/A,,Clear,350,2013-03-21 18:54:00
3:54 PM,37.0,9.0,31,29.86,10.0,NNW,16.1,25.3,N/A,,Clear,340,2013-03-21 19:54:00
4:54 PM,37.0,9.0,31,29.87,10.0,North,12.7,19.6,N/A,,Clear,10,2013-03-21 20:54:00
5:54 PM,36.0,9.0,33,29.88,10.0,North,15.0,25.3,N/A,,Clear,350,2013-03-21 21:54:00
6:54 PM,34.0,9.0,35,29.90,10.0,North,12.7,21.9,N/A,,Clear,350,2013-03-21 22:54:00
7:54 PM,33.1,10.0,38,29.91,10.0,NNW,12.7,-,N/A,,Clear,340,2013-03-21 23:54:00
8:54 PM,30.9,10.9,43,29.93,10.0,NNW,9.2,-,N/A,,Clear,340,2013-03-22 00:54:00
9:54 PM,28.9,10.9,47,29.95,10.0,NW,6.9,-,N/A,,Clear,310,2013-03-22 01:54:00
10:54 PM,28.9,10.9,47,29.96,10.0,NNW,8.1,-,N/A,,Clear,340,2013-03-22 02:54:00
11:54 PM,28.0,10.9,49,29.96,10.0,NNW,8.1,-,N/A,,Clear,330,2013-03-22 03:54:00